Change the Weather History Date:

Wednesday, October 9, 2013

  Actual Average Record
Temperature  
Mean Temperature 58 °F -  
Max Temperature 75 °F 74 °F 86 °F (2010)
Min Temperature 41 °F 51 °F 27 °F (2000)
Degree Days  
Heating Degree Days 7    
Growing Degree Days 8 (Base 50)    
Moisture  
Dew Point 46 °F    
Average Humidity 78    
Maximum Humidity 100    
Minimum Humidity 38    
Precipitation  
Precipitation 0.00 in - - ()
Sea Level Pressure  
Sea Level Pressure 30.14 in    
Wind  
Wind Speed 1 mph (SE)    
Max Wind Speed 7 mph    
Max Gust Speed -    
Visibility 8 miles    
Events      
Averages and records for this station are not official NWS values.
T = Trace of Precipitation, MM = Missing Value Source: NWS Daily Summary

Daily Weather History Graph

Daily Weather History Graph

Search for Another Location

Airport or City:

Trip Planner

Search our weather history database for the weather conditions in past years. The results will help you decide how hot, cold, wet, or windy it might be!

Date:

Astronomy

Oct. 09, 2013 Rise Set
Actual Time 7:04 AM CDT 6:30 PM CDT
Civil Twilight 6:37 AM CDT 6:57 PM CDT
Nautical Twilight 6:06 AM CDT 7:28 PM CDT
Astronomical Twilight 5:36 AM CDT 7:58 PM CDT
Moon 11:56 AM CDT (10/9) 10:08 PM CDT (10/9)
Length of Visible Light 12h 19m
Length of Day
11h 26m
Waxing Crescent, 25% of the Moon is Illuminated
Oct 9
Waxing Crescent
Oct 11
First Quarter
Oct 18
Full
Oct 26
Last Quarter
Nov 3
New

Hourly Weather History & Observations

Time (CDT) Temp. Dew Point Humidity Pressure Visibility Wind Dir Wind Speed Gust Speed Precip Events Conditions
12:53 AM 46.0 °F 44.1 °F 93% 30.13 in 10.0 mi Calm Calm - N/A   Clear
1:53 AM 44.1 °F 43.0 °F 96% 30.14 in 10.0 mi Calm Calm - N/A   Clear
2:53 AM 44.1 °F 42.1 °F 93% 30.13 in 8.0 mi Calm Calm - N/A   Clear
3:30 AM 42.8 °F 42.8 °F 100% 30.13 in 1.8 mi Calm Calm - N/A   Clear
3:39 AM 42.8 °F 41.0 °F 93% 30.13 in 3.0 mi Calm Calm - N/A   Clear
3:53 AM 42.1 °F 42.1 °F 100% 30.13 in 10.0 mi Calm Calm - N/A   Clear
4:20 AM 42.8 °F 41.0 °F 93% 30.14 in 1.5 mi Calm Calm - N/A   Clear
4:35 AM 42.8 °F 41.0 °F 93% 30.14 in 4.0 mi Calm Calm - N/A   Clear
4:53 AM 44.1 °F 42.1 °F 93% 30.15 in 8.0 mi Calm Calm - N/A   Clear
5:13 AM 42.8 °F 41.0 °F 93% 30.15 in 1.8 mi Calm Calm - N/A   Clear
5:44 AM 42.8 °F 41.0 °F 93% 30.16 in 3.0 mi Calm Calm - N/A   Clear
5:53 AM 41.0 °F 39.9 °F 96% 30.16 in 8.0 mi Calm Calm - N/A   Clear
6:53 AM 42.1 °F 41.0 °F 96% 30.17 in 10.0 mi Calm Calm - N/A   Clear
7:53 AM 44.1 °F 44.1 °F 100% 30.19 in 9.0 mi Calm Calm - N/A   Clear
8:53 AM 52.0 °F 46.9 °F 83% 30.19 in 10.0 mi Calm Calm - N/A   Clear
9:53 AM 59.0 °F 48.9 °F 69% 30.20 in 10.0 mi Calm Calm - N/A   Clear
10:53 AM 64.0 °F 48.0 °F 56% 30.20 in 10.0 mi Calm Calm - N/A   Clear
11:53 AM 69.1 °F 46.9 °F 45% 30.18 in 10.0 mi East 5.8 mph - N/A   Clear
12:53 PM 71.1 °F 46.9 °F 42% 30.16 in 10.0 mi SE 6.9 mph - N/A   Clear
1:53 PM 72.0 °F 48.0 °F 43% 30.13 in 10.0 mi Variable 6.9 mph - N/A   Clear
2:53 PM 75.0 °F 48.9 °F 40% 30.12 in 10.0 mi Variable 3.5 mph - N/A   Clear
3:53 PM 75.0 °F 48.0 °F 38% 30.10 in 10.0 mi SSE 5.8 mph - N/A   Clear
4:53 PM 75.0 °F 48.9 °F 40% 30.09 in 10.0 mi ESE 3.5 mph - N/A   Clear
5:53 PM 73.0 °F 52.0 °F 48% 30.09 in 10.0 mi Calm Calm - N/A   Clear
6:53 PM 64.9 °F 53.1 °F 65% 30.09 in 10.0 mi Calm Calm - N/A   Clear
7:53 PM 60.1 °F 53.1 °F 78% 30.10 in 10.0 mi Calm Calm - N/A   Clear
8:53 PM 55.9 °F 52.0 °F 87% 30.11 in 10.0 mi Calm Calm - N/A   Clear
9:53 PM 55.0 °F 51.1 °F 86% 30.11 in 10.0 mi South 3.5 mph - N/A   Clear
10:53 PM 57.0 °F 53.1 °F 87% 30.12 in 10.0 mi South 3.5 mph - N/A   Clear
11:53 PM 53.1 °F 50.0 °F 89% 30.12 in 10.0 mi Calm Calm - N/A   Clear